Date String (YYYY-MM-DD hh:mm:ss) UTC,Instrument flags,absolute air pressure of the measurement (hPa),sample flow rate (lpm),inlet stack bypass flow (lpm),air temperature of the measurement (°C),ambient temperature measured by the external sensor (°C),aerosol sample conditioner tube jacket temperature (°C),OPC LED temperature (°C),internal box temperature (°C),relative humidity of the measurement (%),span deviation,mass concentration of particles derived from Lorenz-Mie calculation of OPC scattering (μg/m³),mass concentration of particles derived from Lorenz-Mie calculation of OPC scattering (μg/m³),mass concentration of particles derived from Lorenz-Mie calculation of OPC scattering (μg/m³)
DateTimeUTC,F1_M11,P_M11,Q1_M11,Q2_M11,T1_M11,T2_M11,T3_M11,T4_M11,T5_M11,U1_M11,ZSPAN_M11,X0_M11,X2_M11,X1_M11
2024-01-30 01:00:00,SystemResetWarning,0836.6,5.00,000.00,025.7,023.1,000.0,034.1,026.8,14.5,0000.0,0011.38,0003.78,0003.41
2024-01-30 01:01:00,SystemResetWarning,0836.6,5.01,000.00,025.7,023.4,000.0,034.0,026.8,14.5,0000.0,0011.20,0003.79,0003.42
2024-01-30 01:02:00,SystemResetWarning,0836.6,5.00,000.00,025.7,023.7,000.0,034.0,026.9,14.5,0000.0,0010.58,0003.79,0003.43
2024-01-30 01:03:00,SystemResetWarning,0836.7,4.99,000.00,025.7,023.9,000.0,034.0,027.0,14.4,0000.0,0010.65,0003.82,0003.45
2024-01-30 01:04:00,SystemResetWarning,0836.7,5.00,000.00,025.7,024.1,000.0,034.0,027.1,14.5,0000.0,0010.03,0003.86,0003.47
2024-01-30 01:05:00,SystemResetWarning,0836.8,5.00,000.00,025.7,024.3,000.0,034.0,027.1,14.5,0000.0,0009.20,0003.91,0003.49
2024-01-30 01:06:00,SystemResetWarning,0836.8,5.00,000.00,025.7,024.4,000.0,034.0,027.2,14.5,0000.0,0009.37,0003.92,0003.51
2024-01-30 01:07:00,SystemResetWarning,0836.8,5.00,000.00,025.8,024.6,000.0,034.0,027.2,14.5,0000.0,0009.52,0003.93,0003.52
2024-01-30 01:08:00,SystemResetWarning,0836.8,5.00,000.00,025.8,024.7,000.0,034.0,027.3,14.5,0000.0,0009.85,0003.97,0003.55
2024-01-30 01:09:00,SystemResetWarning,0836.8,5.00,000.00,025.8,024.8,000.0,034.0,027.3,14.4,0000.0,0010.29,0004.04,0003.58
2024-01-30 01:10:00,SystemResetWarning,0836.8,4.98,000.00,025.8,024.8,000.0,034.0,027.3,14.4,0000.0,0010.36,0004.10,0003.62
2024-01-30 01:11:00,SystemResetWarning,0836.9,5.00,000.00,025.9,024.9,000.0,034.0,027.4,14.4,0000.0,0010.31,0004.14,0003.63
2024-01-30 01:12:00,SystemResetWarning,0836.9,5.01,000.00,025.9,024.9,000.0,034.0,027.4,14.4,0000.0,0009.82,0004.11,0003.62
2024-01-30 01:13:00,SystemResetWarning,0837.0,5.01,000.00,025.9,025.0,000.0,034.0,027.4,14.4,0000.0,0010.21,0004.14,0003.61
2024-01-30 01:14:00,SystemResetWarning,0836.9,4.99,000.00,025.9,025.0,000.0,034.0,027.5,14.3,0000.0,0010.71,0004.21,0003.59
2024-01-30 01:15:00,SystemResetWarning,0837.0,5.00,000.00,026.0,025.1,000.0,034.1,027.5,14.4,0000.0,0010.32,0004.22,0003.57
2024-01-30 01:16:00,SystemResetWarning,0837.0,5.01,000.00,026.0,025.1,000.0,034.1,027.5,14.3,0000.0,0010.96,0004.19,0003.55
2024-01-30 01:17:00,SystemResetWarning,0837.0,5.01,000.00,026.0,025.1,000.0,034.1,027.5,14.2,0000.0,0010.71,0004.16,0003.52
2024-01-30 01:18:00,SystemResetWarning,0837.1,5.00,000.00,026.0,025.2,000.0,034.1,027.6,14.2,0000.0,0011.08,0004.16,0003.51
2024-01-30 01:19:00,SystemResetWarning,0837.1,4.98,000.00,026.1,025.2,000.0,034.1,027.6,14.2,0000.0,0011.30,0004.16,0003.50
2024-01-30 01:20:00,SystemResetWarning,0837.2,5.00,000.00,026.1,025.2,000.0,034.2,027.6,14.2,0000.0,0011.44,0004.13,0003.47
2024-01-30 01:21:00,SystemResetWarning,0837.1,5.00,000.00,026.1,025.2,000.0,034.2,027.6,14.2,0000.0,0011.73,0004.09,0003.45
2024-01-30 01:22:00,SystemResetWarning,0837.2,5.00,000.00,026.1,025.2,000.0,034.2,027.6,14.2,0000.0,0011.73,0004.07,0003.43
2024-01-30 01:23:00,SystemResetWarning,0837.2,5.00,000.00,026.1,025.2,000.0,034.2,027.6,14.2,0000.0,0012.34,0004.09,0003.43
2024-01-30 01:24:00,SystemResetWarning,0837.2,5.00,000.00,026.1,025.2,000.0,034.2,027.6,14.2,0000.0,0012.40,0004.12,0003.45
2024-01-30 01:25:00,SystemResetWarning,0837.2,5.00,000.00,026.2,025.2,000.0,034.3,027.6,14.2,0000.0,0011.34,0004.08,0003.48
2024-01-30 01:26:00,SystemResetWarning,0837.2,5.00,000.00,026.2,025.3,000.0,034.3,027.6,14.2,0000.0,0011.65,0004.08,0003.50
2024-01-30 01:27:00,SystemResetWarning,0837.2,5.00,000.00,026.2,025.3,000.0,034.3,027.6,14.2,0000.0,0011.31,0004.10,0003.52
2024-01-30 01:28:00,SystemResetWarning,0837.2,5.00,000.00,026.2,025.3,000.0,034.3,027.7,14.2,0000.0,0011.75,0004.10,0003.52
2024-01-30 01:29:00,SystemResetWarning,0837.2,5.00,000.00,026.2,025.3,000.0,034.3,027.7,14.3,0000.0,0011.47,0004.13,0003.54
2024-01-30 01:30:00,SystemResetWarning,0837.2,4.99,000.00,026.2,025.3,000.0,034.3,027.7,14.2,0000.0,0010.79,0004.11,0003.54
2024-01-30 01:31:00,SystemResetWarning,0837.2,5.00,000.00,026.2,025.3,000.0,034.4,027.7,14.1,0000.0,0010.47,0004.12,0003.55
2024-01-30 01:32:00,SystemResetWarning,0837.2,5.00,000.00,026.2,025.3,000.0,034.4,027.7,14.0,0000.0,0010.13,0004.12,0003.54
2024-01-30 01:33:00,SystemResetWarning,0837.2,5.01,000.00,026.3,025.3,000.0,034.4,027.7,14.0,0000.0,0010.47,0004.13,0003.55
2024-01-30 01:34:00,SystemResetWarning,0837.2,5.01,000.00,026.3,025.3,000.0,034.4,027.7,14.0,0000.0,0010.63,0004.12,0003.57
2024-01-30 01:35:00,SystemResetWarning,0837.2,5.00,000.00,026.3,025.3,000.0,034.4,027.7,14.2,0000.0,0010.09,0004.08,0003.56
2024-01-30 01:36:00,SystemResetWarning,0837.5,5.00,000.00,026.3,025.3,000.0,034.4,027.7,14.5,0000.0,0010.68,0004.06,0003.56
2024-01-30 01:37:00,SystemResetWarning,0837.2,5.00,000.00,026.3,025.4,000.0,034.5,027.8,14.6,0000.0,0011.48,0004.07,0003.57
2024-01-30 01:38:00,SystemResetWarning,0837.3,4.98,000.00,026.3,025.4,000.0,034.5,027.8,14.6,0000.0,0011.90,0004.11,0003.58
2024-01-30 01:39:00,SystemResetWarning,0837.3,4.99,000.00,026.3,025.4,000.0,034.5,027.8,14.5,0000.0,0011.38,0004.15,0003.61
2024-01-30 01:40:00,SystemResetWarning,0837.4,5.01,000.00,026.3,025.4,000.0,034.5,027.8,14.4,0000.0,0011.36,0004.17,0003.62
2024-01-30 01:41:00,SystemResetWarning,0837.2,5.00,000.00,026.3,025.4,000.0,034.5,027.8,14.5,0000.0,0011.95,0004.26,0003.65
2024-01-30 01:42:00,SystemResetWarning,0837.2,5.00,000.00,026.4,025.5,000.0,034.5,027.8,14.5,0000.0,0012.37,0004.24,0003.66
2024-01-30 01:43:00,SystemResetWarning,0837.2,4.99,000.00,026.4,025.1,000.0,034.5,027.8,14.6,0000.0,0012.72,0004.20,0003.63
2024-01-30 01:44:00,SystemResetWarning,0837.2,4.99,000.00,026.3,023.0,000.0,034.5,027.6,14.6,0000.0,0013.69,0004.15,0003.62
2024-01-30 01:45:00,SystemResetWarning,0837.3,5.02,000.00,026.2,021.9,000.0,034.4,027.4,14.4,0000.0,0013.40,0004.14,0003.60
2024-01-30 01:46:00,SystemResetWarning,0837.2,5.00,000.00,026.0,022.0,000.0,034.4,026.8,14.5,0000.0,0013.49,0004.14,0003.59
2024-01-30 01:47:00,SystemResetWarning,0837.3,4.99,000.00,025.8,022.4,000.0,034.3,026.6,14.7,0000.0,0013.02,0004.16,0003.58
2024-01-30 01:48:00,SystemResetWarning,0837.2,5.00,000.00,025.7,022.8,000.0,034.3,026.7,14.6,0000.0,0012.30,0004.16,0003.57
2024-01-30 01:49:00,SystemResetWarning,0837.2,5.01,000.00,025.7,023.1,000.0,034.2,026.7,14.5,0000.0,0012.01,0004.11,0003.56
2024-01-30 01:50:00,SystemResetWarning,0837.2,5.01,000.00,025.7,023.4,000.0,034.2,026.8,14.6,0000.0,0012.49,0004.11,0003.54
2024-01-30 01:51:00,SystemResetWarning,0837.2,5.00,000.00,025.7,023.7,000.0,034.1,026.9,14.7,0000.0,0013.04,0004.09,0003.53
2024-01-30 01:52:00,SystemResetWarning,0837.3,4.99,000.00,025.7,023.9,000.0,034.1,027.0,14.6,0000.0,0012.78,0004.07,0003.52
2024-01-30 01:53:00,SystemResetWarning,0837.3,4.99,000.00,025.7,024.0,000.0,034.1,027.0,14.6,0000.0,0012.99,0004.11,0003.51
2024-01-30 01:54:00,SystemResetWarning,0837.4,4.99,000.00,025.7,024.2,000.0,034.0,027.0,14.5,0000.0,0013.14,0004.18,0003.54
2024-01-30 01:55:00,SystemResetWarning,0837.4,5.00,000.00,025.7,024.3,000.0,034.0,027.1,14.6,0000.0,0012.41,0004.22,0003.55
2024-01-30 01:56:00,SystemResetWarning,0837.4,5.01,000.00,025.7,024.4,000.0,034.0,027.1,14.6,0000.0,0011.93,0004.24,0003.56
2024-01-30 01:57:00,SystemResetWarning,0837.4,5.00,000.00,025.7,024.4,000.0,034.0,027.1,14.5,0000.0,0011.55,0004.22,0003.56
2024-01-30 01:58:00,SystemResetWarning,0837.4,5.01,000.00,025.7,024.5,000.0,034.0,027.2,14.5,0000.0,0011.55,0004.21,0003.55
2024-01-30 01:59:00,SystemResetWarning,0837.4,5.00,000.00,025.7,024.5,000.0,034.0,027.2,14.5,0000.0,0011.31,0004.17,0003.51
